Race Coverage Navigation

TS # 28 / El Dorado, KS  2019

 


TS STATS
TS Distance 33.99 
Total Distance 1654.13 
Miles To Go 1416.15 
TS Climbing 1605 
Total Climbing
TS  Elevation
TS  Net Elevation 2546 
Map Filename Open Map 
Directions Filename  
Latitude 37.82 
Longitude -96.89 
Google Map  TimeStation Map 


TS Arrival Data
Arr Ord  #/Name Arrival DT TS Dst Avg This TS Avg Overall Ascending
 1 605 - Christian Echavarria  06/18/2019 22:32 33.99  9.06  9.5 
 2 608 - Elin Starup  06/18/2019 17:32 33.99  9.49  9.76 
 3 161 - Seana Hogan  06/18/2019 12:51 33.99  13.6  10.04 
 4 618 - GREGORY ROBINSON  06/18/2019 10:24 33.99  13.33  10.2 
 5 424 - Team i RON man Veterans supporting Veterans  06/18/2019 10:03 33.99  12.44  10.24 
 6 399 - Valerio Zamboni  06/18/2019 4:29 33.99  12.91  10.61 
 7 610 - Kabir Rachure  06/17/2019 22:32 33.99  12.07  11.01 
 8 510 - John C. Tarlton  06/17/2019 19:27 33.99  6.64  11.26 
 9 442 - Joe Barr  06/17/2019 19:02 33.99  10.1  11.29 
 10 411 - Geoff Brunner  06/17/2019 18:40 33.99  12.07  11.32 
 11 559 - Team Martin RAAM 2019 (Martin Bergmeister)  06/17/2019 17:40 33.99  9.1  11.39 
 12 568 - Alexandra Meixner  06/17/2019 15:28 33.99  12  11.54 
 13 611 - Marcelo Soares " MIXIRICA "  06/17/2019 15:27 33.99  12.83  11.56 
 14 604 - Chieko Ozawa  06/17/2019 14:53 33.99  12.99  11.58 
 15 615 - Philipp Amhof  06/17/2019 12:50 33.99  6.66  11.77 
 16 603 - Alan Bradley  06/17/2019 9:42 33.99  12.59  12.05 
 17 623 - Ultra Paka Racing Team (Daniel Polman)  06/17/2019 7:59 33.99  5.22  12.18 
 18 416 - Leah Goldstein  06/17/2019 6:36 33.99  5.65  12.3 
 19 367 - Daniela Genovesi  06/17/2019 5:59 33.99  7.78  12.36 
 20 622 - Thomas Odom-Team Kyle Pease Foundation  06/17/2019 0:44 33.99  14.16  12.87 
 21 329 - Peter Oyler  06/16/2019 23:38 33.99  15.69  13.02 
 22 612 - Markus K. Brandl  06/16/2019 22:23 33.99  8.75  13.12 
 23 529 - Isa Pulver  06/16/2019 17:52 33.99  15  13.58 
 24 617 - SOLO.kiwi (Craig Harper)  06/16/2019 17:20 33.99  15.45  13.66 
 25 T205 - Prevent Breast Cancer powered by Endomag  06/20/2019 15:12 33.99  16.19  13.77 
 26 T210 - Bike Wine Team  06/20/2019 14:53 33.99  12.14  13.82 
 27 609 - Jakob Olsen  06/16/2019 13:34 33.99  17.14  14.11 
 28 T207 - Team Life Time  06/20/2019 11:51 33.99  3.82  14.17 
 29 288 - Dave Haase  06/16/2019 11:03 33.99  15.81  14.45 
 30 T203 - JPsDuo  06/20/2019 9:05 33.99  15.69  14.51 
 31 279 - Marko Baloh  06/16/2019 7:41 33.99  13.69  14.9 
 32 T409 - Serpentine Golden Girls  06/20/2019 6:22 33.99  14.89  14.9 
 33 T200 - AIR RELAX GoPro TEAM BRASIL  06/19/2019 23:03 33.99  18.54  15.9 
 34 T417 - Team4RAAM 2019 powered by TGW Living Logistics  06/19/2019 22:21 33.99  17.14  16.08 
 35 T801 - Mind Over Matter  06/19/2019 20:38 33.99  19.06  16.36 
 36 T806 - Team SuperMarrow  06/19/2019 20:01 33.99  22.17  16.47 
 37 T402 - EA/WFP RAAM Team  06/19/2019 19:12 33.99  19.8  16.54 
 38 T413 - TEAM BRASIL - SKIPPER  06/19/2019 18:47 33.99  17.89  16.64 
 39 T204 - Lucan CRC  06/19/2019 18:00 33.99  17.89  16.72 
 40 T206 - Project Linear Acceleration  06/19/2019 16:49 33.99  19.61  16.93 
 41 T403 - EKJ Denmark  06/19/2019 16:47 33.99  19.06  16.95 
 42 T415 - TEAM FIRE VELO 935  06/19/2019 16:47 33.99  18.05  16.99 
 43 377 - Christoph Strasser  06/15/2019 17:49 33.99  14.89  17.02 
 44 T803 - Team EndoPark  06/19/2019 15:55 33.99  19.06  17.16 
 45 T405 - High Rollers  06/19/2019 15:29 33.99  28.33  17.19 
 46 T202 - Integra Medical - BAA Racing  06/19/2019 15:16 33.99  16.58  17.19 
 47 T414 - Brazil Nuts  06/19/2019 14:07 33.99  20.6  17.46 
 48 T410 - Soap-Aid  06/19/2019 12:54 33.99  25.49  17.68 
 49 T418 - The Opportunists  06/19/2019 10:49 33.99  19.42  18.11 
 50 T406 - Operation Walk Midwest  06/19/2019 7:58 33.99  17.89  18.65 
 51 T808 - Antonia's Friends 2019  06/19/2019 8:04 33.99  19.24  18.7 
 52 T400 - Cantastic4  06/19/2019 6:57 33.99  20.81  18.84 
 53 T408 - Radeln-fuer-Kinder (Cycling-for-Kids)  06/19/2019 6:03 33.99  20.6  19.07 
 54 T804 - Team FSHD Skyland Trail  06/19/2019 5:57 33.99  17.58  19.15 
 55 T412 - Team Aspect  06/19/2019 5:09 33.99  14.06  19.28 
 56 T416 - Team Rotary Raams Polio  06/19/2019 4:49 33.99  19.42  19.37 
 57 T802 - Scorchers  06/19/2019 3:58 33.99  21.47  19.59 
 58 T407 - Julian Becker   06/19/2019 2:00 33.99  19.06  20 
 59 T807 - Team ZOE International  06/19/2019 1:50 33.99  19.42  20.12 
 60 T201 - EAT WELL  06/19/2019 0:42 33.99  19.24  20.25 
 61 T805 - Team Oceanside  06/19/2019 0:28 33.99  26.49  20.45 
 62 T401 - Data Techniques powered by Networks Centre  06/18/2019 20:07 33.99  20.39  21.5 
 63 T404 - Gentlemen of speed  06/18/2019 20:01 33.99  23.18  21.54 
 64 T800 - Backstedt Racing Project 14  06/18/2019 16:31 33.99  24.28  22.65 
 65 T411 - team alpha - tischlerei groemmer  06/18/2019 15:59 33.99  23.44  22.77